Location: *
(51.0333°S, 178.4667°E)
Time: 10:10:13
(UTC+00:00)

Cosmos 1140 Rocket - Pass Details

Date: 15 November 2019
Orbit: 745 x 767 km, 74.1° (Epoch: 12 December)

Event Time Altitude Azimuth Distance (km) Brightness Sun altitude
Rises 08:58:16 0° 204° (SSW) 3,278 8.4 -10.9°
Reaches altitude 10° 09:00:41 10° 202° (SSW) 2,343 7.3 -11.2°
Maximum altitude 09:06:01 76° 116° (ESE) 802 3.6 -11.7°
Enters shadow 09:10:10 17° 31° (NNE) 1,887 4.9 -12.1°
